TELSTAR 19V (43562 NORAD) Tracking and Keplerian Element Data

This shows tracking and keplerian element data for the satellite.

Feedback or suggestion? Click here.




ElementValue
Catalog43562
NameTELSTAR 19V
Epoch Orbit773
Epoch Day223.18433736
Epoch Year2020
RAAN145.1178
Inclination0.0094
Eccentricity0.0003277
Argument of Perigee22.5023
Mean Anonmoly154.8494
Mean Motion1.00271246
Decay Rate-2.81E-06
L11 43562U 18059A 20223.18433736 -.00000281 00000-0 00000+0 0 9998
L22 43562 0.0094 145.1178 0003277 22.5023 154.8494 1.00271246 7730

Live tracking and technical data element details for TELSTAR 19V (NORAD 43562). TELSTAR 19V can be tracked NOW for your location showing map with azimuth and elevation plus other details from your city location.

Track the satellite on the map from your city or location and see movement details for azimuth, elevation, latitude, longitude, range, height, and movement on the map or in text.







IsCatalogInMostPopularTable: catalog: 43562, numindb: 708
Update: records affected: 1



GetName: 43562 TELSTAR 19V

Hit Count: updated at: Mon, 10 Aug 2020 22:21:07 GMT